Time,TemperatureF,DewpointF,PressureIn,WindDirection,WindDirectionDegrees,WindSpeedMPH,WindSpeedGustMPH,Humidity,HourlyPrecipIn,Conditions,Clouds,dailyrainin,SoftwareType,DateUTC
2013-04-19 00:02:00,24.8,23.3,29.42,NE,36,14.0,23.0,94,0.04,,---,0.00,VWS V14.01,2013-04-19 05:02:00,
2013-04-19 00:07:00,24.7,23.2,29.42,NNE,19,7.0,23.0,94,0.04,,---,0.00,VWS V14.01,2013-04-19 05:07:00,
2013-04-19 00:12:00,24.7,23.2,29.42,NE,44,22.0,23.0,94,0.04,,---,0.00,VWS V14.01,2013-04-19 05:12:00,
2013-04-19 00:18:00,24.6,23.1,29.42,ENE,76,13.0,23.0,94,0.05,,---,0.01,VWS V14.01,2013-04-19 05:18:00,
2013-04-19 00:23:00,24.5,23.0,29.42,NNE,13,15.0,23.0,94,0.05,,---,0.01,VWS V14.01,2013-04-19 05:23:00,
2013-04-19 00:28:00,24.5,23.0,29.42,NE,34,14.0,26.0,94,0.05,,---,0.01,VWS V14.01,2013-04-19 05:28:00,
2013-04-19 00:33:00,24.4,22.9,29.42,NNE,25,17.0,17.0,94,0.03,,---,0.01,VWS V14.01,2013-04-19 05:33:00,
2013-04-19 00:39:00,24.3,22.8,29.42,NNE,14,5.0,22.0,94,0.04,,---,0.02,VWS V14.01,2013-04-19 05:39:00,
2013-04-19 00:44:00,24.3,22.8,29.42,NNW,338,10.0,22.0,94,0.04,,---,0.02,VWS V14.01,2013-04-19 05:44:00,
2013-04-19 00:49:00,24.3,22.8,29.40,NE,48,4.0,23.0,94,0.04,,---,0.02,VWS V14.01,2013-04-19 05:49:00,
2013-04-19 00:54:00,24.2,22.7,29.40,NE,35,13.0,23.0,94,0.04,,---,0.02,VWS V14.01,2013-04-19 05:54:00,
2013-04-19 01:00:00,24.1,22.6,29.39,East,83,12.0,23.0,94,0.04,,---,0.02,VWS V14.01,2013-04-19 06:00:00,
2013-04-19 01:06:00,23.9,22.4,29.39,NNW,345,6.0,26.0,94,0.02,,---,0.02,VWS V14.01,2013-04-19 06:06:00,
2013-04-19 01:11:00,23.8,22.3,29.39,North,9,16.0,27.0,94,0.02,,---,0.02,VWS V14.01,2013-04-19 06:11:00,
2013-04-19 01:16:00,23.7,22.2,29.36,NNE,32,7.0,27.0,94,0.02,,---,0.02,VWS V14.01,2013-04-19 06:16:00,
2013-04-19 01:22:00,23.6,22.1,29.36,NE,45,7.0,27.0,94,0.02,,---,0.02,VWS V14.01,2013-04-19 06:22:00,
2013-04-19 01:27:00,23.6,22.1,29.36,NNW,346,7.0,27.0,94,0.02,,---,0.02,VWS V14.01,2013-04-19 06:27:00,
2013-04-19 01:32:00,23.6,22.1,29.34,North,355,12.0,17.0,94,0.01,,---,0.02,VWS V14.01,2013-04-19 06:32:00,
2013-04-19 01:37:00,23.5,22.0,29.34,NNE,17,6.0,23.0,94,0.01,,---,0.02,VWS V14.01,2013-04-19 06:37:00,
2013-04-19 01:43:00,23.4,21.9,29.34,North,5,13.0,25.0,94,0.01,,---,0.02,VWS V14.01,2013-04-19 06:43:00,
2013-04-19 01:48:00,23.3,21.8,29.34,North,9,13.0,25.0,94,0.01,,---,0.02,VWS V14.01,2013-04-19 06:48:00,
2013-04-19 01:53:00,23.2,21.5,29.34,NNE,29,7.0,25.0,93,0.01,,---,0.02,VWS V14.01,2013-04-19 06:53:00,
2013-04-19 01:58:00,23.1,21.4,29.34,North,5,13.0,25.0,93,0.01,,---,0.02,VWS V14.01,2013-04-19 06:58:00,
2013-04-19 02:04:00,23.0,21.5,29.35,North,9,18.0,21.0,94,0.00,,---,0.02,VWS V14.01,2013-04-19 07:04:00,
2013-04-19 02:09:00,22.9,21.4,29.35,North,9,14.0,27.0,94,0.00,,---,0.02,VWS V14.01,2013-04-19 07:09:00,
2013-04-19 02:14:00,22.9,21.4,29.35,NNE,20,6.0,27.0,94,0.00,,---,0.02,VWS V14.01,2013-04-19 07:14:00,
2013-04-19 02:19:00,22.9,21.4,29.35,North,350,12.0,27.0,94,0.00,,---,0.02,VWS V14.01,2013-04-19 07:19:00,
2013-04-19 02:25:00,22.8,21.3,29.35,NNE,15,10.0,27.0,94,0.00,,---,0.02,VWS V14.01,2013-04-19 07:25:00,
2013-04-19 02:30:00,22.8,21.3,29.36,NNW,329,10.0,27.0,94,0.00,,---,0.02,VWS V14.01,2013-04-19 07:30:00,
2013-04-19 02:35:00,22.7,21.2,29.36,North,5,5.0,15.0,94,0.00,,---,0.02,VWS V14.01,2013-04-19 07:35:00,
2013-04-19 02:41:00,22.7,21.0,29.36,North,350,2.0,18.0,93,0.00,,---,0.02,VWS V14.01,2013-04-19 07:41:00,
2013-04-19 02:46:00,22.7,21.0,29.37,NNE,30,17.0,21.0,93,0.00,,---,0.02,VWS V14.01,2013-04-19 07:46:00,
2013-04-19 02:51:00,22.6,20.9,29.37,North,10,4.0,21.0,93,0.00,,---,0.02,VWS V14.01,2013-04-19 07:51:00,
2013-04-19 02:56:00,22.5,20.8,29.37,North,360,9.0,21.0,93,0.00,,---,0.02,VWS V14.01,2013-04-19 07:56:00,
2013-04-19 03:02:00,22.5,20.8,29.36,North,350,13.0,18.0,93,0.00,,---,0.02,VWS V14.01,2013-04-19 08:02:00,
2013-04-19 03:07:00,22.5,20.8,29.36,North,355,11.0,21.0,93,0.00,,---,0.02,VWS V14.01,2013-04-19 08:07:00,
2013-04-19 03:12:00,22.4,20.7,29.36,NNW,337,10.0,21.0,93,0.00,,---,0.02,VWS V14.01,2013-04-19 08:12:00,
2013-04-19 03:17:00,22.4,20.7,29.38,NNE,15,14.0,21.0,93,0.00,,---,0.02,VWS V14.01,2013-04-19 08:17:00,
2013-04-19 03:23:00,22.3,20.6,29.38,NNW,338,13.0,21.0,93,0.00,,---,0.02,VWS V14.01,2013-04-19 08:23:00,
2013-04-19 03:28:00,22.1,20.4,29.38,NNE,31,13.0,25.0,93,0.00,,---,0.02,VWS V14.01,2013-04-19 08:28:00,
2013-04-19 03:33:00,22.0,20.3,29.38,NNW,336,18.0,24.0,93,0.00,,---,0.02,VWS V14.01,2013-04-19 08:33:00,
2013-04-19 03:38:00,21.8,20.1,29.38,North,5,7.0,24.0,93,0.00,,---,0.02,VWS V14.01,2013-04-19 08:38:00,
2013-04-19 03:44:00,21.7,20.0,29.38,North,5,6.0,24.0,93,0.00,,---,0.02,VWS V14.01,2013-04-19 08:44:00,
2013-04-19 03:49:00,21.7,20.0,29.38,NNE,24,15.0,24.0,93,0.00,,---,0.02,VWS V14.01,2013-04-19 08:49:00,
2013-04-19 03:54:00,21.7,20.0,29.38,North,11,10.0,24.0,93,0.00,,---,0.02,VWS V14.01,2013-04-19 08:54:00,
2013-04-19 03:59:00,21.6,19.9,29.38,NNW,346,5.0,24.0,93,0.01,,---,0.03,VWS V14.01,2013-04-19 08:59:00,
2013-04-19 04:05:00,21.5,19.8,29.39,NNW,345,11.0,19.0,93,0.01,,---,0.03,VWS V14.01,2013-04-19 09:05:00,
2013-04-19 04:10:00,21.5,19.8,29.39,NNE,12,15.0,19.0,93,0.01,,---,0.03,VWS V14.01,2013-04-19 09:10:00,
2013-04-19 04:15:00,21.4,19.7,29.39,ENE,59,12.0,19.0,93,0.01,,---,0.03,VWS V14.01,2013-04-19 09:15:00,
2013-04-19 04:20:00,21.4,19.7,29.39,NNW,344,11.0,20.0,93,0.01,,---,0.03,VWS V14.01,2013-04-19 09:20:00,
2013-04-19 04:26:00,21.3,19.6,29.39,NW,313,10.0,20.0,93,0.02,,---,0.04,VWS V14.01,2013-04-19 09:26:00,
2013-04-19 04:31:00,21.2,19.5,29.39,North,5,7.0,15.0,93,0.02,,---,0.04,VWS V14.01,2013-04-19 09:31:00,
2013-04-19 04:36:00,21.1,19.4,29.39,NNW,338,2.0,15.0,93,0.02,,---,0.04,VWS V14.01,2013-04-19 09:36:00,
2013-04-19 04:41:00,21.0,19.3,29.39,NNE,13,5.0,15.0,93,0.02,,---,0.04,VWS V14.01,2013-04-19 09:41:00,
2013-04-19 04:46:00,20.9,19.2,29.40,NW,321,7.0,20.0,93,0.03,,---,0.05,VWS V14.01,2013-04-19 09:46:00,
2013-04-19 04:52:00,20.8,19.1,29.40,NNE,14,5.0,20.0,93,0.03,,---,0.05,VWS V14.01,2013-04-19 09:52:00,
2013-04-19 04:57:00,20.7,19.0,29.40,North,5,6.0,20.0,93,0.03,,---,0.05,VWS V14.01,2013-04-19 09:57:00,
2013-04-19 05:02:00,20.7,19.0,29.39,North,9,13.0,15.0,93,0.03,,---,0.06,VWS V14.01,2013-04-19 10:02:00,
2013-04-19 05:07:00,20.6,18.9,29.39,NE,42,7.0,18.0,93,0.03,,---,0.06,VWS V14.01,2013-04-19 10:07:00,
2013-04-19 05:13:00,20.6,18.9,29.39,NNE,17,14.0,18.0,93,0.03,,---,0.06,VWS V14.01,2013-04-19 10:13:00,
2013-04-19 05:18:00,20.5,18.8,29.39,North,5,11.0,22.0,93,0.03,,---,0.06,VWS V14.01,2013-04-19 10:18:00,
2013-04-19 05:23:00,20.4,18.7,29.39,North,5,7.0,22.0,93,0.03,,---,0.06,VWS V14.01,2013-04-19 10:23:00,
2013-04-19 05:28:00,20.4,18.7,29.39,NNE,26,9.0,22.0,93,0.03,,---,0.06,VWS V14.01,2013-04-19 10:28:00,
2013-04-19 05:34:00,20.3,18.6,29.39,NNE,24,11.0,15.0,93,0.02,,---,0.06,VWS V14.01,2013-04-19 10:34:00,
2013-04-19 05:39:00,20.3,18.6,29.39,North,360,12.0,22.0,93,0.03,,---,0.07,VWS V14.01,2013-04-19 10:39:00,
2013-04-19 05:44:00,20.2,18.5,29.39,NNW,333,5.0,22.0,93,0.03,,---,0.07,VWS V14.01,2013-04-19 10:44:00,
2013-04-19 05:49:00,20.2,18.5,29.39,North,355,5.0,22.0,93,0.03,,---,0.07,VWS V14.01,2013-04-19 10:49:00,
2013-04-19 05:54:00,20.1,18.4,29.39,North,350,15.0,25.0,93,0.03,,---,0.07,VWS V14.01,2013-04-19 10:54:00,
2013-04-19 06:00:00,20.0,18.3,29.39,North,5,16.0,25.0,93,0.03,,---,0.07,VWS V14.01,2013-04-19 11:00:00,
2013-04-19 06:05:00,20.0,18.3,29.39,NW,325,9.0,22.0,93,0.02,,---,0.07,VWS V14.01,2013-04-19 11:05:00,
2013-04-19 06:10:00,19.9,18.2,29.39,North,355,11.0,22.0,93,0.02,,---,0.07,VWS V14.01,2013-04-19 11:10:00,
2013-04-19 06:15:00,19.8,18.1,29.38,North,355,9.0,22.0,93,0.02,,---,0.07,VWS V14.01,2013-04-19 11:15:00,
2013-04-19 06:21:00,19.7,18.0,29.38,NNE,23,19.0,23.0,93,0.02,,---,0.07,VWS V14.01,2013-04-19 11:21:00,
2013-04-19 06:26:00,19.7,18.0,29.38,NNW,340,6.0,28.0,93,0.02,,---,0.07,VWS V14.01,2013-04-19 11:26:00,
2013-04-19 06:31:00,19.7,18.0,29.38,NNE,12,4.0,14.0,93,0.01,,---,0.07,VWS V14.01,2013-04-19 11:31:00,
2013-04-19 06:36:00,19.7,18.0,29.38,NW,313,15.0,20.0,93,0.01,,---,0.07,VWS V14.01,2013-04-19 11:36:00,
2013-04-19 06:42:00,19.7,18.0,29.38,North,360,13.0,23.0,93,0.01,,---,0.07,VWS V14.01,2013-04-19 11:42:00,
2013-04-19 06:47:00,19.7,18.0,29.37,NNE,19,15.0,23.0,93,0.01,,---,0.07,VWS V14.01,2013-04-19 11:47:00,
2013-04-19 06:52:00,19.7,18.0,29.37,NNE,14,8.0,25.0,93,0.01,,---,0.07,VWS V14.01,2013-04-19 11:52:00,
2013-04-19 06:57:00,19.7,18.0,29.37,North,11,16.0,27.0,93,0.01,,---,0.07,VWS V14.01,2013-04-19 11:57:00,
2013-04-19 07:03:00,19.6,17.7,29.37,NNW,346,19.0,20.0,92,0.00,,---,0.07,VWS V14.01,2013-04-19 12:03:00,
2013-04-19 07:08:00,19.5,17.6,29.37,NNE,16,24.0,24.0,92,0.00,,---,0.07,VWS V14.01,2013-04-19 12:08:00,
2013-04-19 07:13:00,19.5,17.6,29.37,NNE,19,9.0,28.0,92,0.00,,---,0.07,VWS V14.01,2013-04-19 12:13:00,
2013-04-19 07:18:00,19.4,17.5,29.37,NNE,24,10.0,28.0,92,0.00,,---,0.07,VWS V14.01,2013-04-19 12:18:00,
2013-04-19 07:24:00,19.4,17.5,29.37,North,360,3.0,28.0,92,0.00,,---,0.07,VWS V14.01,2013-04-19 12:24:00,
2013-04-19 07:29:00,19.3,17.4,29.37,NNW,345,12.0,28.0,92,0.00,,---,0.07,VWS V14.01,2013-04-19 12:29:00,
2013-04-19 07:34:00,19.3,17.4,29.37,North,355,10.0,17.0,92,0.00,,---,0.07,VWS V14.01,2013-04-19 12:34:00,
2013-04-19 07:39:00,19.2,17.3,29.37,North,355,15.0,21.0,92,0.00,,---,0.07,VWS V14.01,2013-04-19 12:39:00,
2013-04-19 07:44:00,19.2,17.3,29.37,NE,38,7.0,29.0,92,0.00,,---,0.07,VWS V14.01,2013-04-19 12:44:00,
2013-04-19 07:50:00,19.2,17.3,29.37,NNE,12,20.0,29.0,92,0.00,,---,0.07,VWS V14.01,2013-04-19 12:50:00,
2013-04-19 07:55:00,19.2,17.3,29.37,NNE,19,13.0,29.0,92,0.00,,---,0.07,VWS V14.01,2013-04-19 12:55:00,
2013-04-19 08:00:00,19.2,17.3,29.38,NNW,336,12.0,29.0,92,0.00,,---,0.07,VWS V14.01,2013-04-19 13:00:00,
2013-04-19 08:05:00,19.2,17.3,29.38,NNW,348,10.0,21.0,92,0.00,,---,0.07,VWS V14.01,2013-04-19 13:05:00,
2013-04-19 08:11:00,19.2,17.3,29.38,NNW,346,7.0,21.0,92,0.00,,---,0.07,VWS V14.01,2013-04-19 13:11:00,
2013-04-19 08:16:00,19.2,17.3,29.37,NNE,29,11.0,29.0,92,0.00,,---,0.07,VWS V14.01,2013-04-19 13:16:00,
2013-04-19 08:21:00,19.2,17.3,29.37,NNE,29,9.0,29.0,92,0.00,,---,0.07,VWS V14.01,2013-04-19 13:21:00,
2013-04-19 08:26:00,19.1,17.2,29.37,NNE,20,3.0,29.0,92,0.00,,---,0.07,VWS V14.01,2013-04-19 13:26:00,
2013-04-19 08:32:00,19.1,17.2,29.37,North,360,22.0,23.0,92,0.00,,---,0.07,VWS V14.01,2013-04-19 13:32:00,
2013-04-19 08:37:00,19.0,17.1,29.37,North,5,15.0,28.0,92,0.00,,---,0.07,VWS V14.01,2013-04-19 13:37:00,
2013-04-19 08:42:00,18.9,17.0,29.37,North,350,16.0,30.0,92,0.00,,---,0.07,VWS V14.01,2013-04-19 13:42:00,
2013-04-19 08:48:00,18.9,17.0,29.37,North,350,8.0,30.0,92,0.00,,---,0.07,VWS V14.01,2013-04-19 13:48:00,
2013-04-19 08:53:00,18.9,17.0,29.37,North,5,6.0,30.0,92,0.00,,---,0.07,VWS V14.01,2013-04-19 13:53:00,
2013-04-19 08:58:00,18.8,16.9,29.37,NNE,14,16.0,30.0,92,0.00,,---,0.07,VWS V14.01,2013-04-19 13:58:00,
2013-04-19 09:03:00,18.7,16.8,29.37,NE,43,21.0,21.0,92,0.00,,---,0.07,VWS V14.01,2013-04-19 14:03:00,
2013-04-19 09:09:00,18.6,16.7,29.37,North,5,7.0,23.0,92,0.00,,---,0.07,VWS V14.01,2013-04-19 14:09:00,
2013-04-19 09:14:00,18.6,16.7,29.37,NNE,27,5.0,26.0,92,0.00,,---,0.07,VWS V14.01,2013-04-19 14:14:00,
2013-04-19 09:19:00,18.5,16.6,29.37,North,5,14.0,26.0,92,0.00,,---,0.07,VWS V14.01,2013-04-19 14:19:00,
2013-04-19 09:24:00,18.5,16.6,29.37,North,11,10.0,26.0,92,0.00,,---,0.07,VWS V14.01,2013-04-19 14:24:00,
2013-04-19 09:30:00,18.5,16.6,29.37,NNE,21,11.0,26.0,92,0.00,,---,0.07,VWS V14.01,2013-04-19 14:30:00,
2013-04-19 09:35:00,18.5,16.6,29.37,North,351,8.0,18.0,92,0.00,,---,0.07,VWS V14.01,2013-04-19 14:35:00,
2013-04-19 09:40:00,18.5,16.6,29.37,NNE,14,12.0,24.0,92,0.00,,---,0.07,VWS V14.01,2013-04-19 14:40:00,
2013-04-19 09:45:00,18.4,16.5,29.37,NNE,12,12.0,24.0,92,0.00,,---,0.07,VWS V14.01,2013-04-19 14:45:00,
2013-04-19 09:51:00,18.4,16.5,29.37,ENE,63,12.0,24.0,92,0.00,,---,0.07,VWS V14.01,2013-04-19 14:51:00,
2013-04-19 09:56:00,18.4,16.5,29.37,NNE,26,17.0,24.0,92,0.00,,---,0.07,VWS V14.01,2013-04-19 14:56:00,
2013-04-19 10:01:00,18.4,16.5,29.37,NNE,24,18.0,18.0,92,0.00,,---,0.07,VWS V14.01,2013-04-19 15:01:00,
2013-04-19 10:06:00,18.3,16.4,29.37,North,355,16.0,26.0,92,0.00,,---,0.07,VWS V14.01,2013-04-19 15:06:00,
2013-04-19 10:12:00,18.2,16.3,29.37,North,9,9.0,28.0,92,0.00,,---,0.07,VWS V14.01,2013-04-19 15:12:00,
2013-04-19 10:17:00,18.2,16.3,29.38,NNE,17,9.0,28.0,92,0.00,,---,0.07,VWS V14.01,2013-04-19 15:17:00,
2013-04-19 10:22:00,18.3,16.4,29.38,NNE,14,10.0,28.0,92,0.00,,---,0.07,VWS V14.01,2013-04-19 15:22:00,
2013-04-19 10:27:00,18.3,16.4,29.38,NNW,338,13.0,28.0,92,0.00,,---,0.07,VWS V14.01,2013-04-19 15:27:00,
2013-04-19 10:33:00,18.2,16.3,29.38,North,349,13.0,25.0,92,0.00,,---,0.07,VWS V14.01,2013-04-19 15:33:00,
2013-04-19 10:38:00,18.2,16.3,29.38,NNE,18,8.0,25.0,92,0.00,,---,0.07,VWS V14.01,2013-04-19 15:38:00,
2013-04-19 10:43:00,18.2,16.3,29.38,North,5,12.0,28.0,92,0.00,,---,0.07,VWS V14.01,2013-04-19 15:43:00,
2013-04-19 10:49:00,18.2,16.3,29.38,NNW,345,9.0,28.0,92,0.00,,---,0.07,VWS V14.01,2013-04-19 15:49:00,
2013-04-19 10:54:00,18.3,16.4,29.38,North,355,13.0,28.0,92,0.00,,---,0.07,VWS V14.01,2013-04-19 15:54:00,
2013-04-19 10:59:00,18.3,16.4,29.38,NNE,25,13.0,28.0,92,0.00,,---,0.07,VWS V14.01,2013-04-19 15:59:00,
2013-04-19 11:04:00,18.2,16.3,29.39,North,5,25.0,30.0,92,0.00,,---,0.07,VWS V14.01,2013-04-19 16:04:00,
2013-04-19 11:10:00,18.3,16.4,29.39,NNW,333,25.0,30.0,92,0.00,,---,0.07,VWS V14.01,2013-04-19 16:10:00,
2013-04-19 11:15:00,18.4,16.5,29.40,North,5,11.0,30.0,92,0.00,,---,0.07,VWS V14.01,2013-04-19 16:15:00,
2013-04-19 11:20:00,18.4,16.5,29.40,North,349,11.0,30.0,92,0.00,,---,0.07,VWS V14.01,2013-04-19 16:20:00,
2013-04-19 11:25:00,18.3,16.4,29.40,NNE,19,13.0,30.0,92,0.00,,---,0.07,VWS V14.01,2013-04-19 16:25:00,
2013-04-19 11:31:00,18.2,16.3,29.41,North,5,25.0,30.0,92,0.00,,---,0.07,VWS V14.01,2013-04-19 16:31:00,
2013-04-19 11:36:00,18.3,16.4,29.41,NE,34,18.0,30.0,92,0.00,,---,0.07,VWS V14.01,2013-04-19 16:36:00,
2013-04-19 11:41:00,18.4,16.5,29.41,North,360,10.0,30.0,92,0.00,,---,0.07,VWS V14.01,2013-04-19 16:41:00,
2013-04-19 11:46:00,18.7,16.8,29.41,NNE,13,10.0,30.0,92,0.00,,---,0.07,VWS V14.01,2013-04-19 16:46:00,
2013-04-19 11:52:00,18.9,17.0,29.41,NW,326,12.0,30.0,92,0.00,,---,0.07,VWS V14.01,2013-04-19 16:52:00,
2013-04-19 11:57:00,18.9,17.0,29.41,North,9,23.0,30.0,92,0.00,,---,0.07,VWS V14.01,2013-04-19 16:57:00,
2013-04-19 12:02:00,18.9,17.0,29.41,NNE,13,9.0,24.0,92,0.00,,---,0.07,VWS V14.01,2013-04-19 17:02:00,
2013-04-19 12:07:00,19.1,17.2,29.41,NE,40,9.0,24.0,92,0.00,,---,0.07,VWS V14.01,2013-04-19 17:07:00,
2013-04-19 12:13:00,19.3,17.4,29.41,NNE,16,21.0,27.0,92,0.00,,---,0.07,VWS V14.01,2013-04-19 17:13:00,
2013-04-19 12:18:00,19.3,17.4,29.42,NNW,341,13.0,27.0,92,0.00,,---,0.07,VWS V14.01,2013-04-19 17:18:00,
2013-04-19 12:23:00,19.5,17.6,29.42,NNE,21,5.0,27.0,92,0.00,,---,0.07,VWS V14.01,2013-04-19 17:23:00,
2013-04-19 12:28:00,19.7,17.8,29.42,North,350,14.0,27.0,92,0.00,,---,0.07,VWS V14.01,2013-04-19 17:28:00,
2013-04-19 12:34:00,19.7,17.8,29.42,NNW,346,12.0,25.0,92,0.00,,---,0.07,VWS V14.01,2013-04-19 17:34:00,
2013-04-19 12:39:00,19.7,17.8,29.42,North,355,23.0,28.0,92,0.00,,---,0.07,VWS V14.01,2013-04-19 17:39:00,
2013-04-19 12:44:00,19.9,18.0,29.42,North,5,20.0,28.0,92,0.00,,---,0.07,VWS V14.01,2013-04-19 17:44:00,
2013-04-19 12:49:00,20.0,18.0,29.43,NNE,30,14.0,28.0,92,0.00,,---,0.07,VWS V14.01,2013-04-19 17:49:00,
2013-04-19 12:55:00,20.0,18.0,29.43,NW,321,5.0,28.0,92,0.00,,---,0.07,VWS V14.01,2013-04-19 17:55:00,
2013-04-19 13:00:00,19.9,18.0,29.43,North,5,15.0,28.0,92,0.00,,---,0.07,VWS V14.01,2013-04-19 18:00:00,
2013-04-19 13:05:00,20.0,18.0,29.43,NNW,337,14.0,26.0,92,0.00,,---,0.07,VWS V14.01,2013-04-19 18:05:00,
2013-04-19 13:11:00,19.9,18.0,29.43,NW,313,12.0,26.0,92,0.01,,---,0.08,VWS V14.01,2013-04-19 18:11:00,
2013-04-19 13:16:00,19.9,17.7,29.45,WNW,286,6.0,26.0,91,0.01,,---,0.08,VWS V14.01,2013-04-19 18:16:00,
2013-04-19 13:21:00,19.8,17.6,29.45,NW,318,13.0,26.0,91,0.01,,---,0.08,VWS V14.01,2013-04-19 18:21:00,
2013-04-19 13:26:00,19.7,17.5,29.45,North,360,9.0,33.0,91,0.01,,---,0.08,VWS V14.01,2013-04-19 18:26:00,
2013-04-19 13:32:00,19.7,17.5,29.46,North,355,11.0,19.0,91,0.01,,---,0.08,VWS V14.01,2013-04-19 18:32:00,
2013-04-19 13:37:00,19.7,17.5,29.46,NNE,17,25.0,26.0,91,0.01,,---,0.08,VWS V14.01,2013-04-19 18:37:00,
2013-04-19 13:42:00,19.7,17.5,29.46,NNW,335,14.0,26.0,91,0.01,,---,0.08,VWS V14.01,2013-04-19 18:42:00,
2013-04-19 13:47:00,19.8,17.9,29.47,NNW,338,20.0,26.0,92,0.01,,---,0.08,VWS V14.01,2013-04-19 18:47:00,
2013-04-19 13:53:00,19.7,17.5,29.47,North,355,9.0,29.0,91,0.01,,---,0.08,VWS V14.01,2013-04-19 18:53:00,
2013-04-19 13:58:00,19.9,18.0,29.47,NNW,329,25.0,29.0,92,0.01,,---,0.08,VWS V14.01,2013-04-19 18:58:00,
2013-04-19 14:03:00,20.2,18.2,29.48,North,5,18.0,22.0,92,0.01,,---,0.08,VWS V14.01,2013-04-19 19:03:00,
2013-04-19 14:09:00,20.2,18.2,29.48,NNW,348,12.0,24.0,92,0.01,,---,0.08,VWS V14.01,2013-04-19 19:09:00,
2013-04-19 14:14:00,20.3,18.4,29.48,NNE,15,18.0,25.0,92,0.01,,---,0.08,VWS V14.01,2013-04-19 19:14:00,
2013-04-19 14:19:00,20.2,18.0,29.49,NNW,329,16.0,25.0,91,0.01,,---,0.08,VWS V14.01,2013-04-19 19:19:00,
2013-04-19 14:24:00,20.3,18.4,29.49,NW,325,2.0,25.0,92,0.01,,---,0.08,VWS V14.01,2013-04-19 19:24:00,
2013-04-19 14:30:00,20.5,18.5,29.49,North,5,11.0,25.0,92,0.01,,---,0.08,VWS V14.01,2013-04-19 19:30:00,
2013-04-19 14:35:00,20.2,18.0,29.50,North,355,21.0,28.0,91,0.00,,---,0.08,VWS V14.01,2013-04-19 19:35:00,
2013-04-19 14:40:00,20.1,17.9,29.50,NNW,346,14.0,28.0,91,0.00,,---,0.08,VWS V14.01,2013-04-19 19:40:00,
2013-04-19 14:45:00,20.1,17.9,29.51,NNE,17,18.0,28.0,91,0.00,,---,0.08,VWS V14.01,2013-04-19 19:45:00,
2013-04-19 14:51:00,20.1,17.9,29.51,NNE,24,22.0,28.0,91,0.00,,---,0.08,VWS V14.01,2013-04-19 19:51:00,
2013-04-19 14:56:00,20.2,18.0,29.51,North,5,23.0,28.0,91,0.00,,---,0.08,VWS V14.01,2013-04-19 19:56:00,
2013-04-19 15:01:00,20.3,18.1,29.52,NNW,347,8.0,17.0,91,0.00,,---,0.08,VWS V14.01,2013-04-19 20:01:00,
2013-04-19 15:06:00,20.3,18.1,29.52,WNW,286,13.0,30.0,91,0.00,,---,0.08,VWS V14.01,2013-04-19 20:06:00,
2013-04-19 15:12:00,20.1,17.6,29.52,NNW,341,10.0,30.0,90,0.00,,---,0.08,VWS V14.01,2013-04-19 20:12:00,
2013-04-19 15:17:00,20.2,18.0,29.53,WNW,296,10.0,30.0,91,0.00,,---,0.08,VWS V14.01,2013-04-19 20:17:00,
2013-04-19 15:22:00,19.8,17.6,29.53,North,5,22.0,30.0,91,0.00,,---,0.08,VWS V14.01,2013-04-19 20:22:00,
2013-04-19 15:27:00,19.7,17.5,29.53,NW,304,5.0,30.0,91,0.00,,---,0.08,VWS V14.01,2013-04-19 20:27:00,
2013-04-19 15:33:00,19.7,17.2,29.55,NNW,346,20.0,24.0,90,0.00,,---,0.08,VWS V14.01,2013-04-19 20:33:00,
2013-04-19 15:38:00,19.5,17.0,29.55,NNW,330,11.0,27.0,90,0.00,,---,0.08,VWS V14.01,2013-04-19 20:38:00,
2013-04-19 15:43:00,19.2,16.8,29.55,NW,315,11.0,32.0,90,0.00,,---,0.08,VWS V14.01,2013-04-19 20:43:00,
2013-04-19 15:48:00,19.1,16.7,29.57,NW,312,9.0,32.0,90,0.00,,---,0.08,VWS V14.01,2013-04-19 20:48:00,
2013-04-19 15:54:00,19.3,17.1,29.57,NE,34,4.0,32.0,91,0.00,,---,0.08,VWS V14.01,2013-04-19 20:54:00,
2013-04-19 15:59:00,19.3,16.9,29.57,NNW,343,16.0,32.0,90,0.00,,---,0.08,VWS V14.01,2013-04-19 20:59:00,
2013-04-19 16:04:00,18.8,16.1,29.58,NW,322,12.0,30.0,89,0.00,,---,0.08,VWS V14.01,2013-04-19 21:04:00,
2013-04-19 16:09:00,18.8,16.4,29.58,North,5,19.0,30.0,90,0.00,,---,0.08,VWS V14.01,2013-04-19 21:09:00,
2013-04-19 16:15:00,18.9,16.5,29.58,North,9,15.0,30.0,90,0.00,,---,0.08,VWS V14.01,2013-04-19 21:15:00,
2013-04-19 16:20:00,18.9,16.5,29.59,NNW,337,15.0,30.0,90,0.00,,---,0.08,VWS V14.01,2013-04-19 21:20:00,
2013-04-19 16:25:00,18.8,16.1,29.59,North,350,15.0,30.0,89,0.00,,---,0.08,VWS V14.01,2013-04-19 21:25:00,
2013-04-19 16:30:00,18.7,16.0,29.60,North,360,18.0,30.0,89,0.00,,---,0.08,VWS V14.01,2013-04-19 21:30:00,
2013-04-19 16:35:00,18.9,16.5,29.60,NW,318,10.0,20.0,90,0.00,,---,0.08,VWS V14.01,2013-04-19 21:35:00,
2013-04-19 16:41:00,19.1,16.7,29.60,North,5,13.0,20.0,90,0.00,,---,0.08,VWS V14.01,2013-04-19 21:41:00,
2013-04-19 16:46:00,19.3,16.9,29.61,NNE,26,12.0,22.0,90,0.00,,---,0.08,VWS V14.01,2013-04-19 21:46:00,
2013-04-19 16:51:00,19.4,17.0,29.61,NW,316,13.0,22.0,90,0.00,,---,0.08,VWS V14.01,2013-04-19 21:51:00,
2013-04-19 16:56:00,19.4,17.0,29.61,NW,311,13.0,24.0,90,0.00,,---,0.08,VWS V14.01,2013-04-19 21:56:00,
2013-04-19 17:02:00,19.5,17.0,29.63,NNW,347,7.0,13.0,90,0.00,,---,0.08,VWS V14.01,2013-04-19 22:02:00,
2013-04-19 17:07:00,19.4,17.0,29.63,NNW,327,6.0,19.0,90,0.00,,---,0.08,VWS V14.01,2013-04-19 22:07:00,
2013-04-19 17:12:00,19.4,17.0,29.63,NNE,19,15.0,22.0,90,0.00,,---,0.08,VWS V14.01,2013-04-19 22:12:00,
2013-04-19 17:18:00,19.4,17.0,29.65,NW,320,6.0,22.0,90,0.00,,---,0.08,VWS V14.01,2013-04-19 22:18:00,
2013-04-19 17:23:00,19.4,17.0,29.65,North,9,12.0,22.0,90,0.00,,---,0.08,VWS V14.01,2013-04-19 22:23:00,
2013-04-19 17:28:00,19.3,16.9,29.65,NNW,346,8.0,22.0,90,0.00,,---,0.08,VWS V14.01,2013-04-19 22:28:00,
2013-04-19 17:33:00,19.1,16.7,29.66,NW,307,6.0,18.0,90,0.00,,---,0.08,VWS V14.01,2013-04-19 22:33:00,
2013-04-19 17:39:00,19.1,16.9,29.66,NNE,17,5.0,18.0,91,0.00,,---,0.08,VWS V14.01,2013-04-19 22:39:00,
2013-04-19 17:44:00,19.1,16.9,29.66,NNE,26,12.0,18.0,91,0.00,,---,0.08,VWS V14.01,2013-04-19 22:44:00,
2013-04-19 17:49:00,19.1,16.9,29.67,NNW,328,19.0,19.0,91,0.00,,---,0.08,VWS V14.01,2013-04-19 22:49:00,
2013-04-19 17:54:00,18.9,16.7,29.67,NNE,22,7.0,21.0,91,0.00,,---,0.08,VWS V14.01,2013-04-19 22:54:00,
2013-04-19 17:59:00,18.9,16.7,29.67,NNW,347,10.0,21.0,91,0.00,,---,0.08,VWS V14.01,2013-04-19 22:59:00,
2013-04-19 18:05:00,18.9,16.7,29.68,NNW,330,10.0,15.0,91,0.00,,---,0.08,VWS V14.01,2013-04-19 23:05:00,
2013-04-19 18:10:00,18.9,16.5,29.68,NNW,345,3.0,16.0,90,0.00,,---,0.08,VWS V14.01,2013-04-19 23:10:00,
2013-04-19 18:15:00,19.0,16.6,29.70,WNW,303,15.0,19.0,90,0.00,,---,0.08,VWS V14.01,2013-04-19 23:15:00,
2013-04-19 18:20:00,18.9,16.2,29.70,NNW,332,6.0,19.0,89,0.00,,---,0.08,VWS V14.01,2013-04-19 23:20:00,
2013-04-19 18:26:00,18.9,16.2,29.70,NNE,17,10.0,19.0,89,0.00,,---,0.08,VWS V14.01,2013-04-19 23:26:00,
2013-04-19 18:31:00,18.8,16.1,29.71,North,5,14.0,21.0,89,0.00,,---,0.08,VWS V14.01,2013-04-19 23:31:00,
2013-04-19 18:36:00,18.7,16.0,29.71,North,9,3.0,20.0,89,0.00,,---,0.08,VWS V14.01,2013-04-19 23:36:00,
2013-04-19 18:41:00,18.7,16.0,29.71,NNW,344,6.0,20.0,89,0.00,,---,0.08,VWS V14.01,2013-04-19 23:41:00,
2013-04-19 18:46:00,18.7,16.0,29.72,NNW,331,12.0,20.0,89,0.00,,---,0.08,VWS V14.01,2013-04-19 23:46:00,
2013-04-19 18:52:00,18.6,15.9,29.72,NNW,341,10.0,20.0,89,0.00,,---,0.08,VWS V14.01,2013-04-19 23:52:00,
2013-04-19 18:57:00,18.6,15.6,29.72,NNW,339,4.0,20.0,88,0.00,,---,0.08,VWS V14.01,2013-04-19 23:57:00,
2013-04-19 19:02:00,18.5,15.8,29.72,North,355,10.0,19.0,89,0.00,,---,0.08,VWS V14.01,2013-04-20 00:02:00,
2013-04-19 19:07:00,18.4,15.4,29.72,NNW,333,4.0,19.0,88,0.00,,---,0.08,VWS V14.01,2013-04-20 00:07:00,
2013-04-19 19:13:00,18.4,15.4,29.72,North,5,2.0,19.0,88,0.00,,---,0.08,VWS V14.01,2013-04-20 00:13:00,
2013-04-19 19:18:00,18.4,15.7,29.74,North,5,6.0,19.0,89,0.00,,---,0.08,VWS V14.01,2013-04-20 00:18:00,
2013-04-19 19:23:00,18.3,15.4,29.74,North,5,9.0,19.0,88,0.00,,---,0.08,VWS V14.01,2013-04-20 00:23:00,
2013-04-19 19:28:00,18.3,15.6,29.74,North,355,3.0,19.0,89,0.00,,---,0.08,VWS V14.01,2013-04-20 00:28:00,
2013-04-19 19:34:00,18.3,15.6,29.74,North,11,2.0,10.0,89,0.00,,---,0.08,VWS V14.01,2013-04-20 00:34:00,
2013-04-19 19:39:00,18.3,15.4,29.74,NNW,336,4.0,15.0,88,0.00,,---,0.08,VWS V14.01,2013-04-20 00:39:00,
2013-04-19 19:45:00,18.2,15.0,29.74,NW,323,7.0,15.0,87,0.00,,---,0.08,VWS V14.01,2013-04-20 00:45:00,
2013-04-19 19:50:00,18.2,15.0,29.75,WNW,295,6.0,15.0,87,0.00,,---,0.08,VWS V14.01,2013-04-20 00:50:00,
2013-04-19 19:55:00,18.1,14.9,29.75,NNW,344,8.0,15.0,87,0.00,,---,0.08,VWS V14.01,2013-04-20 00:55:00,
2013-04-19 20:00:00,18.0,14.8,29.76,North,355,6.0,15.0,87,0.00,,---,0.08,VWS V14.01,2013-04-20 01:00:00,
2013-04-19 20:05:00,17.9,14.7,29.76,NNW,336,7.0,15.0,87,0.00,,---,0.08,VWS V14.01,2013-04-20 01:05:00,
2013-04-19 20:11:00,17.8,14.6,29.76,North,351,10.0,15.0,87,0.00,,---,0.08,VWS V14.01,2013-04-20 01:11:00,
2013-04-19 20:16:00,17.7,14.5,29.77,NW,309,10.0,15.0,87,0.00,,---,0.08,VWS V14.01,2013-04-20 01:16:00,
2013-04-19 20:21:00,17.6,14.4,29.77,NW,321,6.0,15.0,87,0.00,,---,0.08,VWS V14.01,2013-04-20 01:21:00,
2013-04-19 20:26:00,17.5,14.3,29.77,North,355,4.0,15.0,87,0.00,,---,0.08,VWS V14.01,2013-04-20 01:26:00,
2013-04-19 20:32:00,17.5,14.3,29.77,North,355,5.0,9.0,87,0.00,,---,0.08,VWS V14.01,2013-04-20 01:32:00,
2013-04-19 20:37:00,17.4,14.2,29.77,NNW,327,5.0,13.0,87,0.00,,---,0.08,VWS V14.01,2013-04-20 01:37:00,
2013-04-19 20:42:00,17.4,13.9,29.77,North,355,13.0,17.0,86,0.00,,---,0.08,VWS V14.01,2013-04-20 01:42:00,
2013-04-19 20:47:00,17.4,13.9,29.78,NNW,334,9.0,17.0,86,0.00,,---,0.08,VWS V14.01,2013-04-20 01:47:00,
2013-04-19 20:53:00,17.3,13.8,29.78,NW,322,3.0,18.0,86,0.00,,---,0.08,VWS V14.01,2013-04-20 01:53:00,
2013-04-19 20:58:00,17.3,13.8,29.78,North,355,11.0,18.0,86,0.00,,---,0.08,VWS V14.01,2013-04-20 01:58:00,
2013-04-19 21:03:00,17.2,13.7,29.79,North,360,4.0,9.0,86,0.00,,---,0.08,VWS V14.01,2013-04-20 02:03:00,
2013-04-19 21:08:00,17.1,13.6,29.79,NNW,344,12.0,15.0,86,0.00,,---,0.08,VWS V14.01,2013-04-20 02:08:00,
2013-04-19 21:14:00,17.1,13.6,29.79,NW,320,10.0,15.0,86,0.00,,---,0.08,VWS V14.01,2013-04-20 02:14:00,
2013-04-19 21:19:00,17.0,13.5,29.79,North,360,14.0,15.0,86,0.00,,---,0.08,VWS V14.01,2013-04-20 02:19:00,
2013-04-19 21:24:00,16.8,13.1,29.79,NNW,341,5.0,15.0,85,0.00,,---,0.08,VWS V14.01,2013-04-20 02:24:00,
2013-04-19 21:30:00,16.7,13.0,29.79,NNW,340,4.0,15.0,85,0.00,,---,0.08,VWS V14.01,2013-04-20 02:30:00,
2013-04-19 21:35:00,16.6,12.9,29.80,North,360,12.0,14.0,85,0.00,,---,0.08,VWS V14.01,2013-04-20 02:35:00,
2013-04-19 21:40:00,16.4,12.4,29.80,North,349,9.0,16.0,84,0.00,,---,0.08,VWS V14.01,2013-04-20 02:40:00,
2013-04-19 21:45:00,16.4,12.7,29.81,NNW,340,3.0,16.0,85,0.00,,---,0.08,VWS V14.01,2013-04-20 02:45:00,
2013-04-19 21:51:00,16.3,12.6,29.81,NNW,342,5.0,16.0,85,0.00,,---,0.08,VWS V14.01,2013-04-20 02:51:00,
2013-04-19 21:56:00,16.2,12.5,29.81,NNW,348,4.0,16.0,85,0.00,,---,0.08,VWS V14.01,2013-04-20 02:56:00,
2013-04-19 22:01:00,16.1,12.4,29.81,NNW,348,3.0,6.0,85,0.00,,---,0.08,VWS V14.01,2013-04-20 03:01:00,
2013-04-19 22:06:00,16.0,12.3,29.81,NNW,344,5.0,11.0,85,0.00,,---,0.08,VWS V14.01,2013-04-20 03:06:00,
2013-04-19 22:12:00,15.9,12.2,29.81,North,360,4.0,13.0,85,0.00,,---,0.08,VWS V14.01,2013-04-20 03:12:00,
2013-04-19 22:17:00,15.8,12.1,29.82,NNW,329,9.0,13.0,85,0.00,,---,0.08,VWS V14.01,2013-04-20 03:17:00,
2013-04-19 22:22:00,15.6,11.6,29.82,NW,313,5.0,13.0,84,0.00,,---,0.08,VWS V14.01,2013-04-20 03:22:00,
2013-04-19 22:27:00,15.5,11.5,29.82,NW,326,5.0,13.0,84,0.00,,---,0.08,VWS V14.01,2013-04-20 03:27:00,
2013-04-19 22:33:00,15.5,11.5,29.82,NW,308,1.0,11.0,84,0.00,,---,0.08,VWS V14.01,2013-04-20 03:33:00,
2013-04-19 22:38:00,15.4,11.4,29.82,NNW,348,3.0,13.0,84,0.00,,---,0.08,VWS V14.01,2013-04-20 03:38:00,
2013-04-19 22:43:00,15.3,11.3,29.82,North,5,3.0,13.0,84,0.00,,---,0.08,VWS V14.01,2013-04-20 03:43:00,
2013-04-19 22:48:00,15.2,11.0,29.83,NW,323,6.0,13.0,83,0.00,,---,0.08,VWS V14.01,2013-04-20 03:48:00,
2013-04-19 22:54:00,15.1,10.9,29.83,NNE,26,1.0,13.0,83,0.00,,---,0.08,VWS V14.01,2013-04-20 03:54:00,
2013-04-19 22:59:00,15.0,10.8,29.83,NNW,336,2.0,13.0,83,0.00,,---,0.08,VWS V14.01,2013-04-20 03:59:00,
2013-04-19 23:01:00,15.0,11.1,29.83,North,350,2.0,13.0,84,0.00,,---,0.08,VWS V14.01,2013-04-20 04:01:00,
2013-04-19 23:03:00,14.9,10.7,29.83,North,355,9.0,13.0,83,0.00,,---,0.08,VWS V14.01,2013-04-20 04:03:00,
2013-04-19 23:04:00,14.9,10.7,29.83,NNE,26,5.0,13.0,83,0.00,,---,0.08,VWS V14.01,2013-04-20 04:04:00,
2013-04-19 23:09:00,14.8,10.6,29.83,NNW,342,5.0,13.0,83,0.00,,---,0.08,VWS V14.01,2013-04-20 04:09:00,
2013-04-19 23:14:00,14.7,10.5,29.83,North,350,4.0,13.0,83,0.00,,---,0.08,VWS V14.01,2013-04-20 04:14:00,
2013-04-19 23:19:00,14.7,10.5,29.83,North,355,3.0,13.0,83,0.00,,---,0.08,VWS V14.01,2013-04-20 04:19:00,
2013-04-19 23:25:00,14.6,10.4,29.83,NW,316,6.0,13.0,83,0.00,,---,0.08,VWS V14.01,2013-04-20 04:25:00,
2013-04-19 23:30:00,14.5,10.3,29.84,NNW,346,5.0,13.0,83,0.00,,---,0.08,VWS V14.01,2013-04-20 04:30:00,
2013-04-19 23:35:00,14.4,10.2,29.84,NNW,346,6.0,9.0,83,0.00,,---,0.08,VWS V14.01,2013-04-20 04:35:00,
2013-04-19 23:40:00,14.3,10.1,29.84,NW,313,2.0,14.0,83,0.00,,---,0.08,VWS V14.01,2013-04-20 04:40:00,
2013-04-19 23:46:00,14.1,9.9,29.85,WNW,301,4.0,14.0,83,0.00,,---,0.08,VWS V14.01,2013-04-20 04:46:00,
2013-04-19 23:51:00,14.0,9.8,29.85,NNW,331,5.0,14.0,83,0.00,,---,0.08,VWS V14.01,2013-04-20 04:51:00,
2013-04-19 23:56:00,13.8,9.6,29.85,NNW,333,5.0,14.0,83,0.00,,---,0.08,VWS V14.01,2013-04-20 04:56:00,